Regional Weather Roundup
Issued by NWS

Home | Current Version | Previous Version | Graphics & Text | Print | Product List | Glossary Off
Versions: 1 2 3 4 5 6 7 8 9 10 11 12 13 14 15 16 17 18 19 20 21 22 23 24 25 26 27 28 29 30 31 32 33 34 35 36 37 38 39 40 41 42 43 44 45 46 47 48 49 50

000
ASUS43 KMKX 271717
RWRWI

WISCONSIN REGIONAL WEATHER ROUNDUP
NATIONAL WEATHER SERVICE MILWAUKEE/SULLIVAN WI
1200 PM CDT WED MAY 27 2015

NOTE: "FAIR" INDICATES FEW OR NO CLOUDS BELOW 12,000 FEET WITH NO
SIGNIFICANT WEATHER AND/OR OBSTRUCTIONS TO VISIBILITY.

WIZ001-002-006>008-014>016-023>028-271800-
NORTHWEST WISCONSIN

CITY           SKY/WX    TMP DP  RH WIND       PRES   REMARKS
SUPERIOR ARPT  SUNNY     76  60  58 SW9       29.85S
ASHLAND        MOSUNNY   74  59  59 W12       29.85S
HAYWARD        MOSUNNY   70  56  61 SW12      29.91R
SIREN          SUNNY     71  57  60 SW10G16   29.91R
CUMBERLAND     MOSUNNY   68  55  64 W12       29.93R
RICE LAKE      MOSUNNY   71  55  56 SW7       29.94R
CHETEK         MOSUNNY   71  58  65 SW8       29.93R
LADYSMITH      SUNNY     69  58  68 W9        29.94R
EAU CLAIRE     SUNNY     71  57  61 SW10G20   29.94R
MENOMONIE      SUNNY     71  57  61 SW12      29.94R
NEW RICHMOND   SUNNY     71  58  64 SW10      29.94R
OSCEOLA        SUNNY     72  58  61 SW12      29.96R
$$

WIZ003>005-009-010-017-018-271800-
NORTH CENTRAL WISCONSIN

CITY           SKY/WX    TMP DP  RH WIND       PRES   REMARKS
MANITOWISH WTR MOSUNNY   67  58  72 W8        29.88S
ARBOR VITAE    MOSUNNY   68  59  73 W12       29.89S
WOODRUFF       MOSUNNY   68  59  73 W12       29.89S
RHINELANDER    MOSUNNY   67  57  70 W18       29.91R
EAGLE RIVER    MOSUNNY   66  55  67 W12G17    29.88S
LAND O LAKES   MOSUNNY   68  57  66 W8        29.87S
PHILLIPS       SUNNY     63  56  76 SW6       29.91R
TOMAHAWK       PTSUNNY   63  56  80 W9        29.92S
MEDFORD        MOSUNNY   64  58  81 SW10G17   29.94R
MERRILL        PTSUNNY   62  59  91 SW6       29.94R
$$

WIZ029-030-035-036-043>047-271800-
CENTRAL WISCONSIN

CITY           SKY/WX    TMP DP  RH WIND       PRES   REMARKS
WAUSAU         CLOUDY    61  58  90 SW7       29.94R
MOSINEE        PTSUNNY   61  61 100 CALM        N/A
MARSHFIELD     MOSUNNY   68  58  70 SW13      29.96R
STEVENS POINT  CLOUDY    60  56  88 W5        29.96R
WAUPACA        LGT RAIN  65  59  80 W7        29.95R
WAUTOMA        NOT AVBL
WISC RAPIDS    PTSUNNY   66  57  72 W7        29.97R
CAMP DOUGLAS   NOT AVBL
$$

WIZ011>013-019>022-031-037>040-048>050-271800-
NORTHEAST WISCONSIN

CITY           SKY/WX    TMP DP  RH WIND       PRES   REMARKS
ANTIGO         CLOUDY    59  58  98 W13       29.92S
SHAWANO        CLOUDY    63  59  85 W7        29.92R
OCONTO         CLOUDY    62  61  96 SW6       29.90R
STURGEON BAY   CLOUDY    59  55  88 W10       29.92S
GREEN BAY      LGT RAIN  63  58  83 W12       29.93R
MANITOWOC      LGT RAIN  61  59  94 W12       29.93R
APPLETON       DRIZZLE   63  59  88 W9        29.95R
CLINTONVILLE   LGT RAIN  61  59  94 W8        29.93R
OSHKOSH        CLOUDY    63  56  78 W8        29.96R
$$

WIZ032>034-041-042-053>061-271800-
SOUTHWEST WISCONSIN

CITY           SKY/WX    TMP DP  RH WIND       PRES   REMARKS
LA CROSSE      SUNNY     72  59  63 S9        29.97R
SPARTA         SUNNY     70  54  56 SW3       29.98R
VIROQUA        SUNNY     68  56  65 CALM      30.00R
BOSCOBEL       MOSUNNY   73  58  59 N5        30.00R
PRAIRIE DU CHI SUNNY     70  55  59 CALM      29.99R
PLATTEVILLE    MOSUNNY   68  59  73 W10       30.01R
$$

WIZ056-057-062-063-064-067-068-271800-
SOUTH CENTRAL WISCONSIN

CITY           SKY/WX    TMP DP  RH WIND       PRES   REMARKS
REEDSBURG      MOSUNNY   67  55  66 N8        29.98R
BARABOO/DELLS  MOSUNNY   68  54  61 NW9       29.98R
LONE ROCK      PTSUNNY   69  57  65 W5        30.00R
MINERAL POINT  CLOUDY    68  55  64 W6        30.01R
MADISON        PTSUNNY   66  56  70 VRB7      29.98R
MIDDLETON      PTSUNNY   68  56  66 NW12      29.99R
WATERTOWN      CLOUDY   N/A N/A N/A NW10G16   29.95R
MONROE         PTSUNNY   68  57  68 NW16      29.99R
JANESVILLE     RAIN      64  63  94 NW12      29.98R
$$

WIZ051-052-058>065-066-070>072-271800-
SOUTHEAST WISCONSIN

CITY           SKY/WX    TMP DP  RH WIND       PRES   REMARKS
MILWAUKEE      LGT RAIN  64  57  78 NW15      29.95R
WAUKESHA       CLOUDY    63  57  82 W18       29.97R
MILWAUKEE/TIMM RAIN      64  55  72 W20       29.95R
RACINE         MOSUNNY   70  59  68 W12G18    29.95R
BURLINGTON     PTSUNNY   68  57  69 W13G18    29.95R
KENOSHA        PTSUNNY   70  60  70 W18G25    29.95R
FOND DU LAC    CLOUDY    62  53  72 N13G23    29.98R
SHEBOYGAN      CLOUDY    62  56  80 NW13      29.94R
WEST BEND      CLOUDY    64  57  77 W10       29.94R
JUNEAU         CLOUDY    62  57  81 NW13G18   29.98R
$$

LSZ147-162-271800-
LAKE SUPERIOR

STATION/POSITION TIME  TEMP    WIND        PRES    WAVE
                       AIR SEA DIR/SP/G            HT/PER
                 (UTC) (F)     (DEG/KT/KT) (MB)    (FT/S)
W MID LAKE BUOY  1550   41 37  210/ 10/ 12   N/A     1/ 3
DEVILS ISLAND    1600   53     250/ 12/ 14   N/A
PORT WING        1600   65     270/  9/ 11   N/A
SAXON HARBOR     1600   69     210/  9/ 14   N/A
$$

LMZ867-665-643>646-271800-
LAKE MICHIGAN

STATION/POSITION TIME  TEMP    WIND        PRES    WAVE
                       AIR SEA DIR/SP/G            HT/PER
                 (UTC) (F)     (DEG/KT/KT) (MB)    (FT/S)
CHAMBERS ISLAND  1600   58     220/  5/  9   N/A
N MID LAKE BUOY  1550   44 37  220/ 10/ 10   N/A     3/ 6
NORTHPORT PIER   1600   57     260/  5/ 12   N/A
SISTER BAY       1633   58     250/ 10/ 10   N/A
ALGOMA LAKESHORE 1638          320/  9/ 13   N/A
KEWAUNEE LAKESHO 1600   60     290/  7/ 13   N/A
SHEBOYGAN LAKESH 1600   64     270/ 12/ 15   N/A
PORT WASHINGTON  1640   65     280/  7/ 14   N/A
ATWATER BUOY     1600   62 47  240/  8/ 10   N/A
MILWAUKEE LAKESH 1600   67     270/ 10/ 16   N/A
S MID LAKE BUOY  1550   45 38  200/  8/  8   N/A     1/ 4
KENOSHA   LAKESH 1600   64     260/ 11/ 13   N/A
$$

TC  - TEMPERATURE IN CELSIUS
VSB - VISIBILITY IN STATUTE MILES
WCI - WIND CHILL INDEX
HX  - HEAT INDEX



USA.gov is the U.S. government's official web portal to all federal, state and local government web resources and services.